Weather History for Litchfield, IL

Change the Weather History Date:

Tuesday, November 20, 2012

  Actual Average (KSPI) Record (KSPI)
Temperature  
Mean Temperature 50 °F 41 °F  
Max Temperature 59 °F 50 °F 76 °F (1942)
Min Temperature 40 °F 32 °F 10 °F (1914)
Degree Days  
Heating Degree Days 16 24  
Month to date heating degree days 390  
Since 1 July heating degree days 800  
Cooling Degree Days 0 0  
Month to date cooling degree days 0  
Year to date cooling degree days 1121  
Moisture  
Dew Point 46 °F    
Average Humidity 82    
Maximum Humidity 95    
Minimum Humidity 67    
Precipitation  
Precipitation 0.00 in 0.12 in 1.23 in (1931)
Month to date precipitation 2.13  
Year to date precipitation 33.83  
Snow  
Snow 0.00 in 0.00 in 0.30 in (1895)
Month to date snowfall 0.2  
Since 1 July snowfall 0.2  
Since 1 September snowfall 0.2  
Snow Depth -    
Sea Level Pressure  
Sea Level Pressure 30.13 in    
Wind  
Wind Speed 3 mph (WNW)    
Max Wind Speed 8 mph    
Max Gust Speed -    
Visibility 9 miles    
Events Fog    
T = Trace of Precipitation, MM = Missing Value Source: NWS Daily Summary

Daily Weather History Graph

Daily Weather History Graph

Search for Another Location

Airport:

Trip Planner

Search our weather history database for the weather conditions in past years. The results will help you decide how hot, cold, wet, or windy it might be!

Date:

Astronomy

Nov. 20, 2012 Rise Set
Actual Time 6:48 AM CST 4:40 PM CST
Civil Twilight 6:19 AM CST 5:09 PM CST
Nautical Twilight 5:46 AM CST 5:42 PM CST
Astronomical Twilight 5:14 AM CST 6:14 PM CST
Moon 12:23 PM CST (11/20) No Moon Set
Length of Visible Light 10h 50m
Length of Day
9h 52m
First Quarter, 51% of the Moon is Illuminated
Nov 20
First Quarter
Nov 28
Full
Dec 6
Last Quarter
Dec 13
New
Dec 19
First Quarter

Hourly Weather History & Observations

Time (CST) Temp. Windchill Dew Point Humidity Pressure Visibility Wind Dir Wind Speed Gust Speed Precip Events Conditions
12:15 AM 48.2 °F - 41.4 °F 77% 30.11 in 10.0 mi South 4.6 mph - N/A   Overcast
12:35 AM 46.6 °F - 41.2 °F 81% 30.11 in 10.0 mi SSW 5.8 mph - N/A   Scattered Clouds
12:55 AM 45.1 °F 42.8 °F 41.0 °F 85% 30.11 in 10.0 mi South 4.6 mph - N/A   Clear
1:15 AM 45.0 °F 42.6 °F 40.1 °F 83% 30.11 in 10.0 mi South 4.6 mph - N/A   Scattered Clouds
1:35 AM 44.4 °F 42.0 °F 39.6 °F 83% 30.11 in 10.0 mi South 4.6 mph - N/A   Scattered Clouds
1:55 AM 44.6 °F 42.2 °F 39.4 °F 82% 30.11 in 10.0 mi South 4.6 mph - N/A   Scattered Clouds
2:15 AM 44.8 °F 42.4 °F 39.9 °F 83% 30.10 in 10.0 mi South 4.6 mph - N/A   Overcast
2:35 AM 45.9 °F 43.6 °F 41.0 °F 83% 30.10 in 10.0 mi South 4.6 mph - N/A   Overcast
6:15 AM 43.0 °F 41.3 °F 38.5 °F 84% 30.08 in 10.0 mi SSE 3.5 mph - N/A   Clear
6:35 AM 42.3 °F 40.5 °F 38.3 °F 86% 30.08 in 10.0 mi SSE 3.5 mph - N/A   Clear
6:55 AM 41.4 °F - 37.9 °F 88% 30.09 in 10.0 mi Calm Calm - N/A   Clear
7:15 AM 40.3 °F - 37.2 °F 89% 30.09 in 10.0 mi Calm Calm - N/A   Clear
7:35 AM 41.4 °F - 38.5 °F 89% 30.11 in 10.0 mi Calm Calm - N/A   Clear
7:55 AM 44.8 °F 43.3 °F 41.7 °F 89% 30.11 in 10.0 mi SSE 3.5 mph - N/A   Clear
8:15 AM 47.5 °F - 42.1 °F 82% 30.11 in 10.0 mi SSE 3.5 mph - N/A   Clear
8:35 AM 48.6 °F - 43.0 °F 81% 30.11 in 10.0 mi WSW 3.5 mph - N/A   Clear
8:55 AM 48.7 °F - 43.5 °F 82% 30.11 in 10.0 mi Calm Calm - N/A   Clear
9:15 AM 49.6 °F - 44.2 °F 82% 30.11 in 10.0 mi Calm Calm - N/A   Clear
9:35 AM 50.4 °F - 44.8 °F 81% 30.11 in 10.0 mi Calm Calm - N/A   Clear
9:55 AM 51.1 °F - 45.7 °F 82% 30.12 in 10.0 mi NW 3.5 mph - N/A   Clear
10:15 AM 52.2 °F - 46.2 °F 80% 30.12 in 10.0 mi NNW 3.5 mph - N/A   Clear
10:35 AM 52.9 °F - 46.6 °F 79% 30.11 in 10.0 mi Calm Calm - N/A   Clear
10:55 AM 54.0 °F - 46.8 °F 77% 30.11 in 10.0 mi NNE 3.5 mph - N/A   Clear
11:15 AM 55.2 °F - 47.3 °F 75% 30.10 in 10.0 mi Calm Calm - N/A   Clear
11:35 AM 56.3 °F - 47.7 °F 73% 30.10 in 10.0 mi Calm Calm - N/A   Clear
11:55 AM 56.3 °F - 48.0 °F 74% 30.08 in 10.0 mi Calm Calm - N/A   Mostly Cloudy
12:35 PM 58.5 °F - 48.7 °F 70% 30.08 in 10.0 mi Calm Calm - N/A   Mostly Cloudy
12:55 PM 59.2 °F - 48.4 °F 67% 30.08 in 10.0 mi Calm Calm - N/A   Mostly Cloudy
1:15 PM 59.0 °F - 48.6 °F 68% 30.08 in 10.0 mi Calm Calm - N/A   Scattered Clouds
1:35 PM 59.5 °F - 48.9 °F 68% 30.08 in 10.0 mi Calm Calm - N/A   Scattered Clouds
2:15 PM 59.2 °F - 49.6 °F 71% 30.08 in 10.0 mi Calm Calm - N/A   Mostly Cloudy
2:35 PM 59.0 °F - 49.6 °F 71% 30.08 in 10.0 mi NNW 3.5 mph - N/A   Scattered Clouds
2:55 PM 59.5 °F - 50.2 °F 71% 30.08 in 10.0 mi NW 3.5 mph - N/A   Clear
3:15 PM 59.2 °F - 50.2 °F 72% 30.10 in 10.0 mi NNW 3.5 mph - N/A   Clear
3:55 PM 58.5 °F - 50.4 °F 74% 30.10 in 10.0 mi Calm Calm - N/A   Clear
4:15 PM 57.9 °F - 50.7 °F 77% 30.12 in 10.0 mi WNW 4.6 mph - N/A   Scattered Clouds
4:35 PM 57.4 °F - 50.5 °F 78% 30.12 in 10.0 mi WNW 3.5 mph - N/A   Scattered Clouds
4:55 PM 57.0 °F - 50.4 °F 78% 30.13 in 10.0 mi Calm Calm - N/A   Scattered Clouds
5:15 PM 56.3 °F - 50.5 °F 81% 30.13 in 10.0 mi WNW 3.5 mph - N/A   Mostly Cloudy
5:35 PM 56.5 °F - 50.0 °F 79% 30.13 in 10.0 mi West 3.5 mph - N/A   Mostly Cloudy
5:55 PM 56.3 °F - 50.0 °F 79% 30.14 in 10.0 mi WNW 4.6 mph - N/A   Scattered Clouds
6:15 PM 55.4 °F - 50.4 °F 83% 30.15 in 10.0 mi West 4.6 mph - N/A   Scattered Clouds
6:35 PM 55.4 °F - 50.2 °F 83% 30.15 in 10.0 mi WNW 3.5 mph - N/A   Scattered Clouds
6:55 PM 55.6 °F - 50.0 °F 81% 30.15 in 10.0 mi WNW 3.5 mph - N/A   Scattered Clouds
7:15 PM 54.9 °F - 50.0 °F 84% 30.16 in 10.0 mi Calm Calm - N/A   Scattered Clouds
7:35 PM 54.9 °F - 50.0 °F 84% 30.16 in 10.0 mi Calm Calm - N/A   Mostly Cloudy
7:55 PM 54.5 °F - 50.0 °F 85% 30.17 in 10.0 mi NNW 4.6 mph - N/A   Mostly Cloudy
8:15 PM 54.1 °F - 50.0 °F 86% 30.18 in 7.0 mi NNW 5.8 mph - N/A   Mostly Cloudy
8:35 PM 54.5 °F - 49.8 °F 84% 30.18 in 10.0 mi NW 3.5 mph - N/A   Mostly Cloudy
8:55 PM 52.9 °F - 49.1 °F 87% 30.18 in 7.0 mi NNW 5.8 mph - N/A   Scattered Clouds
9:15 PM 51.4 °F - 48.2 °F 89% 30.18 in 7.0 mi NNW 5.8 mph - N/A   Clear
9:35 PM 50.4 °F - 47.5 °F 90% 30.19 in 7.0 mi NNW 6.9 mph - N/A   Clear
9:55 PM 49.1 °F - 46.6 °F 91% 30.18 in 5.0 mi NW 5.8 mph - N/A   Clear
10:15 PM 48.4 °F - 46.6 °F 93% 30.19 in 4.0 mi NNW 6.9 mph - N/A   Clear
10:35 PM 47.7 °F - 45.9 °F 93% 30.19 in 4.0 mi NNW 6.9 mph - N/A   Clear
10:55 PM 46.6 °F - 45.1 °F 95% 30.19 in 2.5 mi NW 5.8 mph - N/A   Clear
11:15 PM 47.3 °F - 46.0 °F 95% 30.20 in 2.5 mi NW 8.1 mph - N/A   Clear
11:35 PM 46.2 °F 44.1 °F 45.0 °F 95% 30.20 in 1.8 mi NW 4.6 mph - N/A   Mist
11:55 PM 44.6 °F - 43.3 °F 95% 30.20 in 0.5 mi Calm Calm - N/A Fog Fog